CW7229 Weather Reports


Display with metric or nautical units.
time (UTC)temp
F
wind
direction
speed
MPH
gust
MPH
rain 1hr
in
rain 24hr
in
rain mn
in
humidity
%
barometer
mb
20260902043112 55 218 0.0 0.0 0.00 0.06 0.00 63 1017.7
20260902033112 54 218 0.0 0.0 0.00 0.06 0.00 62 1018.7
20260902030112 55 218 0.0 0.0 0.00 0.06 0.00 62 1018.7
20260902023112 56 218 0.0 2.0 0.00 0.06 0.00 63 1018.7
20260902020112 56 215 0.0 0.0 0.00 0.06 0.00 60 1018.7
20260902013112 55 200 0.0 0.0 0.00 0.06 0.00 56 1017.7
20260902010115 55 200 0.0 0.0 0.00 0.06 0.00 54 1017.7
20260902003115 55 200 0.0 0.0 0.00 0.06 0.00 53 1018.7
20260902000114 56 200 0.0 0.0 0.00 0.06 0.00 51 1018.7
20260901233114 57 200 0.0 0.0 0.00 0.06 0.00 51 1018.7
20260901230113 58 200 0.0 0.0 0.00 0.06 0.00 51 1018.7
20260901223113 59 206 0.0 0.0 0.00 0.06 0.00 51 1018.6
20260901203112 62 227 3.0 5.0 0.00 0.06 0.06 48 1017.6
20260901200111 63 209 3.0 5.0 0.00 0.06 0.06 45 1017.5
20260901193111 63 273 3.0 5.0 0.00 0.06 0.06 43 1017.5
20260901183112 65 204 0.0 5.0 0.00 0.06 0.06 38 1016.5
20260901180133 66 245 2.0 5.0 0.00 0.06 0.06 38 1016.5
20260901173111 66 225 4.0 6.0 0.00 0.06 0.06 36 1016.5
20260901170132 67 257 3.0 8.0 0.00 0.06 0.06 35 1016.4
20260901160115 68 303 6.0 8.0 0.00 0.11 0.06 32 1016.4
20260901153115 67 310 8.0 13.0 0.00 0.14 0.06 33 1016.4
20260901150115 68 260 4.0 8.0 0.00 0.14 0.06 33 1016.4
20260901143114 69 178 10.0 17.0 0.00 0.14 0.06 29 1016.4
20260901140115 70 303 7.0 14.0 0.00 0.14 0.06 28 1016.4
20260901123114 73 201 6.0 10.0 0.00 0.16 0.06 25 1016.3
20260901120114 73 239 6.0 8.0 0.00 0.16 0.06 25 1016.3
20260901113114 70 313 6.0 11.0 0.00 0.18 0.06 29 1016.4
20260901110113 70 285 6.0 13.0 0.00 0.18 0.06 29 1016.4
20260901103113 71 289 6.0 12.0 0.00 0.18 0.06 29 1016.4
20260901093112 66 285 5.0 8.0 0.00 0.18 0.06 39 1016.5
20260901080112 64 312 5.0 10.0 0.01 0.18 0.06 50 1015.5
20260901073112 62 108 4.0 7.0 0.06 0.18 0.06 63 1015.5
20260901063112 61 237 4.0 8.0 0.00 0.12 0.00 52 1015.6
20260901060131 61 353 2.0 6.0 0.00 0.12 0.00 54 1014.6
20260901053112 60 184 4.0 7.0 0.00 0.12 0.00 57 1014.6
20260901050132 59 210 3.0 6.0 0.00 0.12 0.00 57 1014.6